| time (UTC) | temp F | wind direction | speed knots | gust knots | rain 1hr in | rain 24hr in | rain mn in | humidity % | barometer mb |
| 20260903064900 | 72 | 350 | 9.6 | 0.0 | 0.00 | 0.00 | 0.00 | 69 | 1018.0 |
| 20260903063400 | 72 | 350 | 9.6 | 0.0 | 0.00 | 0.00 | 0.00 | 69 | 1018.0 |
| 20260903061900 | 72 | 350 | 9.6 | 0.0 | 0.00 | 0.00 | 0.00 | 69 | 1018.0 |
| 20260903060404 | 0 | 0.0 | 0.0 | 0.00 | 0.00 | 0.00 | |||
| 20260903054905 | 68 | 360 | 6.1 | 0.0 | 0.00 | 0.00 | 0.00 | 78 | 1017.0 |
| 20260903053400 | 68 | 360 | 6.1 | 0.0 | 0.00 | 0.00 | 0.00 | 78 | 1017.0 |
| 20260903051901 | 68 | 360 | 6.1 | 0.0 | 0.00 | 0.00 | 0.00 | 78 | 1017.0 |
| 20260903050401 | 68 | 360 | 6.1 | 0.0 | 0.00 | 0.00 | 0.00 | 78 | 1017.0 |
| 20260903044859 | 66 | 350 | 6.1 | 0.0 | 0.00 | 0.00 | 0.00 | 88 | 1017.0 |
| 20260903043359 | 66 | 350 | 6.1 | 0.0 | 0.00 | 0.00 | 0.00 | 88 | 1017.0 |
| 20260903041859 | 66 | 350 | 6.1 | 0.0 | 0.00 | 0.00 | 0.00 | 88 | 1017.0 |
| 20260903040400 | 66 | 350 | 6.1 | 0.0 | 0.00 | 0.00 | 0.00 | 88 | 1017.0 |
| 20260903034900 | 66 | 340 | 2.6 | 0.0 | 0.00 | 0.00 | 0.00 | 83 | 1017.0 |
| 20260903033400 | 66 | 340 | 2.6 | 0.0 | 0.00 | 0.00 | 0.00 | 83 | 1017.0 |
| 20260903031900 | 66 | 340 | 2.6 | 0.0 | 0.00 | 0.00 | 0.00 | 83 | 1017.0 |
| 20260903030515 | 0 | 0.0 | 0.0 | 0.00 | 0.00 | 0.00 | |||
| 20260903025014 | 0 | 0.0 | 0.0 | 0.00 | 0.00 | 0.00 | |||
| 20260903023447 | 0 | 0.0 | 0.0 | 0.00 | 0.00 | 0.00 | |||
| 20260903021859 | 0 | 0.0 | 0.0 | 0.00 | 0.00 | 0.00 | |||
| 20260903020521 | 0 | 0.0 | 0.0 | 0.00 | 0.00 | 0.00 | |||
| 20260903014900 | 0 | 0.0 | 0.0 | 0.00 | 0.00 | 0.00 | |||
| 20260903013359 | 0 | 0.0 | 0.0 | 0.00 | 0.00 | 0.00 | |||
| 20260903011859 | 0 | 0.0 | 0.0 | 0.00 | 0.00 | 0.00 | |||
| 20260903010400 | 0 | 0.0 | 0.0 | 0.00 | 0.00 | 0.00 | |||
| 20260903004900 | 0 | 0.0 | 0.0 | 0.00 | 0.00 | 0.00 | |||
| 20260903003400 | 0 | 0.0 | 0.0 | 0.00 | 0.00 | 0.00 | |||
| 20260903001900 | 0 | 0.0 | 0.0 | 0.00 | 0.00 | 0.00 | |||
| 20260903000359 | 0 | 0.0 | 0.0 | 0.00 | 0.00 | 0.00 | |||
| 20260902234859 | 0 | 0.0 | 0.0 | 0.00 | 0.00 | 0.00 | |||
| 20260902233400 | 0 | 0.0 | 0.0 | 0.00 | 0.00 | 0.00 | |||
| 20260902231901 | 0 | 0.0 | 0.0 | 0.00 | 0.00 | 0.00 | |||
| 20260902230359 | 0 | 0.0 | 0.0 | 0.00 | 0.00 | 0.00 | |||
| 20260902224859 | 68 | 50 | 5.2 | 0.0 | 0.00 | 0.00 | 0.00 | 69 | 1018.0 |
| 20260902223359 | 68 | 50 | 5.2 | 0.0 | 0.00 | 0.00 | 0.00 | 69 | 1018.0 |
| 20260902221859 | 68 | 50 | 5.2 | 0.0 | 0.00 | 0.00 | 0.00 | 69 | 1018.0 |
| 20260902220359 | 68 | 50 | 5.2 | 0.0 | 0.00 | 0.00 | 0.00 | 69 | 1018.0 |
| 20260902214900 | 70 | 60 | 5.2 | 0.0 | 0.00 | 0.00 | 0.00 | 64 | 1017.0 |
| 20260902213400 | 70 | 60 | 5.2 | 0.0 | 0.00 | 0.00 | 0.00 | 64 | 1017.0 |
| 20260902211857 | 70 | 60 | 5.2 | 0.0 | 0.00 | 0.00 | 0.00 | 64 | 1017.0 |
| 20260902210400 | 0 | 0.0 | 0.0 | 0.00 | 0.00 | 0.00 | |||
| 20260902204859 | 70 | 60 | 5.2 | 0.0 | 0.00 | 0.00 | 0.00 | 64 | 1017.0 |
| 20260902203400 | 70 | 60 | 5.2 | 0.0 | 0.00 | 0.00 | 0.00 | 64 | 1017.0 |
| 20260902201900 | 70 | 60 | 5.2 | 0.0 | 0.00 | 0.00 | 0.00 | 64 | 1017.0 |
| 20260902200415 | 70 | 60 | 5.2 | 0.0 | 0.00 | 0.00 | 0.00 | 64 | 1017.0 |
| 20260902194859 | 73 | 110 | 5.2 | 0.0 | 0.00 | 0.00 | 0.00 | 61 | 1017.0 |
| 20260902193359 | 73 | 110 | 5.2 | 0.0 | 0.00 | 0.00 | 0.00 | 61 | 1017.0 |
| 20260902191859 | 73 | 110 | 5.2 | 0.0 | 0.00 | 0.00 | 0.00 | 61 | 1017.0 |
| 20260902190400 | 73 | 110 | 5.2 | 0.0 | 0.00 | 0.00 | 0.00 | 61 | 1017.0 |
| 20260902184900 | 77 | 110 | 7.8 | 0.0 | 0.00 | 0.00 | 0.00 | 54 | 1017.0 |
| 20260902183359 | 77 | 110 | 7.8 | 0.0 | 0.00 | 0.00 | 0.00 | 54 | 1017.0 |
| 20260902181900 | 77 | 110 | 7.8 | 0.0 | 0.00 | 0.00 | 0.00 | 54 | 1017.0 |
| 20260902180400 | 77 | 110 | 7.8 | 0.0 | 0.00 | 0.00 | 0.00 | 54 | 1017.0 |
| 20260902174900 | 82 | 90 | 9.6 | 0.0 | 0.00 | 0.00 | 0.00 | 45 | 1016.0 |
| 20260902173359 | 82 | 90 | 9.6 | 0.0 | 0.00 | 0.00 | 0.00 | 45 | 1016.0 |
| 20260902171900 | 82 | 90 | 9.6 | 0.0 | 0.00 | 0.00 | 0.00 | 45 | 1016.0 |
| 20260902170400 | 82 | 90 | 9.6 | 0.0 | 0.00 | 0.00 | 0.00 | 45 | 1016.0 |
| 20260902165021 | 0 | 0.0 | 0.0 | 0.00 | 0.00 | 0.00 | |||
| 20260902163359 | 86 | 70 | 9.6 | 0.0 | 0.00 | 0.00 | 0.00 | 38 | 1016.0 |
| 20260902161900 | 86 | 70 | 9.6 | 0.0 | 0.00 | 0.00 | 0.00 | 38 | 1016.0 |
| 20260902160410 | 86 | 70 | 9.6 | 0.0 | 0.00 | 0.00 | 0.00 | 38 | 1016.0 |
| 20260902154900 | 88 | 40 | 9.6 | 0.0 | 0.00 | 0.00 | 0.00 | 38 | 1016.0 |
| 20260902153359 | 88 | 40 | 9.6 | 0.0 | 0.00 | 0.00 | 0.00 | 38 | 1016.0 |
| 20260902151859 | 88 | 40 | 9.6 | 0.0 | 0.00 | 0.00 | 0.00 | 38 | 1016.0 |
| 20260902150400 | 88 | 40 | 9.6 | 0.0 | 0.00 | 0.00 | 0.00 | 38 | 1016.0 |
| 20260902144900 | 88 | 340 | 5.2 | 0.0 | 0.00 | 0.00 | 0.00 | 35 | 1017.0 |
| 20260902143400 | 88 | 340 | 5.2 | 0.0 | 0.00 | 0.00 | 0.00 | 35 | 1017.0 |
| 20260902141857 | 88 | 340 | 5.2 | 0.0 | 0.00 | 0.00 | 0.00 | 35 | 1017.0 |
| 20260902140400 | 88 | 340 | 5.2 | 0.0 | 0.00 | 0.00 | 0.00 | 35 | 1017.0 |
| 20260902134900 | 88 | 60 | 7.8 | 0.0 | 0.00 | 0.00 | 0.00 | 35 | 1017.0 |
| 20260902133359 | 88 | 60 | 7.8 | 0.0 | 0.00 | 0.00 | 0.00 | 35 | 1017.0 |
| 20260902131859 | 88 | 60 | 7.8 | 0.0 | 0.00 | 0.00 | 0.00 | 35 | 1017.0 |
| 20260902130400 | 0 | 0.0 | 0.0 | 0.00 | 0.00 | 0.00 | |||
| 20260902124902 | 88 | 90 | 5.2 | 0.0 | 0.00 | 0.00 | 0.00 | 35 | 1018.0 |
| 20260902123400 | 88 | 90 | 5.2 | 0.0 | 0.00 | 0.00 | 0.00 | 35 | 1018.0 |
| 20260902121901 | 88 | 90 | 5.2 | 0.0 | 0.00 | 0.00 | 0.00 | 35 | 1018.0 |
| 20260902120400 | 88 | 90 | 5.2 | 0.0 | 0.00 | 0.00 | 0.00 | 35 | 1018.0 |
| 20260902114859 | 86 | 360 | 7.8 | 0.0 | 0.00 | 0.00 | 0.00 | 38 | 1018.0 |
| 20260902113400 | 86 | 360 | 7.8 | 0.0 | 0.00 | 0.00 | 0.00 | 38 | 1018.0 |
| 20260902111857 | 86 | 360 | 7.8 | 0.0 | 0.00 | 0.00 | 0.00 | 38 | 1018.0 |
| 20260902110400 | 86 | 360 | 7.8 | 0.0 | 0.00 | 0.00 | 0.00 | 38 | 1018.0 |
| 20260902104900 | 86 | 20 | 9.6 | 0.0 | 0.00 | 0.00 | 0.00 | 40 | 1019.0 |
| 20260902103359 | 86 | 20 | 9.6 | 0.0 | 0.00 | 0.00 | 0.00 | 40 | 1019.0 |
| 20260902101900 | 86 | 20 | 9.6 | 0.0 | 0.00 | 0.00 | 0.00 | 40 | 1019.0 |
| 20260902100406 | 86 | 20 | 9.6 | 0.0 | 0.00 | 0.00 | 0.00 | 40 | 1019.0 |
| 20260902094859 | 84 | 100 | 5.2 | 0.0 | 0.00 | 0.00 | 0.00 | 43 | 1019.0 |
| 20260902093359 | 84 | 100 | 5.2 | 0.0 | 0.00 | 0.00 | 0.00 | 43 | 1019.0 |
| 20260902091900 | 84 | 100 | 5.2 | 0.0 | 0.00 | 0.00 | 0.00 | 43 | 1019.0 |
| 20260902090509 | 0 | 0.0 | 0.0 | 0.00 | 0.00 | 0.00 | |||
| 20260902084859 | 81 | 90 | 7.8 | 0.0 | 0.00 | 0.00 | 0.00 | 48 | 1019.0 |
| 20260902083400 | 81 | 90 | 7.8 | 0.0 | 0.00 | 0.00 | 0.00 | 48 | 1019.0 |
| 20260902081900 | 81 | 90 | 7.8 | 0.0 | 0.00 | 0.00 | 0.00 | 48 | 1019.0 |
| 20260902080400 | 81 | 90 | 7.8 | 0.0 | 0.00 | 0.00 | 0.00 | 48 | 1019.0 |
| 20260902074936 | 75 | 30 | 9.6 | 0.0 | 0.00 | 0.00 | 0.00 | 61 | 1019.0 |
| 20260902073400 | 75 | 30 | 9.6 | 0.0 | 0.00 | 0.00 | 0.00 | 61 | 1019.0 |
| 20260902071857 | 75 | 30 | 9.6 | 0.0 | 0.00 | 0.00 | 0.00 | 61 | 1019.0 |
| 20260902070359 | 75 | 30 | 9.6 | 0.0 | 0.00 | 0.00 | 0.00 | 61 | 1019.0 |